Location: Seasalter
(51.3333°N, 1.0167°E)
Time: 10:01:25
(UTC+00:00)

CZ-2D R/B - Pass Details

Date: 26 September 2023
Orbit: 790 x 844 km, 98.8° (Epoch: 09 December)

Event Time Altitude Azimuth Distance (km) Brightness Sun altitude
Rises 01:38:52 0° 17° (NNE) 3,410 6.3 -34.6°
Reaches altitude 10° 01:41:17 10° 21° (NNE) 2,466 5.4 -34.3°
Enters shadow 01:45:11 45° 44° (NE) 1,134 3.1 -34.0°
